Погода в Пинаевых Горках

Россия / Новгородская область     57°39′34″N   31°36′10″E
темп.,
°C
ветер,
м/с
пор.,
м/с
влажн.,
%
обл.,
%
осадки,
мм/ч
давл.,
гПа
погр.,
м
21 апреля, ср
ср2100:00+6в377599 0.0 1014338
03:00+2в2492100 0.0 101290
06:00+4с138999 0.0 1009324
09:00+4ссз2496100 0.1 1007668
12:00+4сз2594100 0.1 1005618
15:00+5зсз258684 0.2 1004539
18:00+8юз2474100 0.2 1004562
21:00+5ююз248523 0.3 100476
22 апреля, чт
чт2200:00+4ююз3108991 0.0 1004215
03:00+5ююз31092100 0.4 1004317
06:00+5ююз3997100 0.2 1005255
09:00+9юз477472 0.2 1006440
12:00+13юз474951 0.0 10071408
15:00+15юз4640100 0.0 10072340
18:00+15ююв374396 0.0 10062160
21:00+8юз1293100 2.8 1007135
23 апреля, пт
пт2300:00+6юз388898 0.4 1008508
03:00+5ю2789100 0.4 1008252
06:00+5ююз3890100 0.0 1007389
09:00+7ююз4765100 0.0 1008956
12:00+8ююз5960100 0.4 10081793
15:00+9юз694472 0.6 10092143
18:00+8юз48505 0.0 10091877
21:00+3ююз27725 0.0 1010161
24 апреля, сб
сб2400:00+2ююз258646 0.0 1010113
03:000юз249421 0.0 100994
06:00−1юз24945 0.0 1009105
09:00+4юз24605 0.0 1008795
12:00+8юз4542100 0.0 10072081
15:00+7юз565076 0.1 10071547
18:00+6юз456294 0.4 10061167
21:00+2ююз268755 0.6 1006236
25 апреля, вс
вс2500:00+1ююз269675 0.0 1006209
03:00+2юз1498100 0.1 1005232
06:00+2зюз2699100 0.3 1005232
09:00+1з3692100 1.4 1006517
12:00+5зюз4571100 0.2 10061089
15:00+6зюз356685 0.7 10071290
18:00+5зюз247293 0.5 1007710
21:00+1зюз279595 1.1 1007203